Location: St. Louis
(38.6270°N, 90.1994°W)
Time: 08:50:16
(UTC-06:00)

Transit 2A - Pass Details

Date: 09 December 2021
Orbit: 591 x 967 km, 66.7° (Epoch: 20 January)

Event Time Altitude Azimuth Distance (km) Brightness Sun altitude
Rises 23:52:32 0° 245° (WSW) 3,329 - -74.2°
Reaches altitude 10° 23:55:18 10° 258° (WSW) 2,464 - -74.2°
Maximum altitude 00:00:00 25° 313° (NW) 1,715 - -74.1°
Drops below altitude 10° 00:05:01 10° 7° (N) 2,647 - -74.0°
Sets 00:08:08 0° 20° (NNE) 3,629 - -73.9°
